Location: Unspecified
(0.0000°N, 0.0000°E)
Time: 06:42:52
(UTC+00:00)

S-56A Canister/Altair - Pass Details

Date: 26 April 2019
Orbit: 633 x 2500 km, 38.9° (Epoch: 17 May)

Event Time Altitude Azimuth Distance (km) Brightness Sun altitude
Rises 19:28:14 0° 282° (WNW) 3,695 12.6 -21.9°
Reaches altitude 10° 19:32:13 10° 262° (W) 2,446 11.0 -22.9°
Maximum altitude 19:35:29 16° 225° (SW) 1,875 9.8 -23.7°
Enters shadow 19:38:17 10° 188° (S) 2,089 9.7 -24.4°
